Weather Roundup
Issued by NWS Springfield, MO

Home | Current Version | Previous Version | Text Only | Print | Product List | Glossary On
Versions: 1 2 3 4 5 6 7 8 9 10 11 12 13 14 15 16 17 18 19 20 21 22 23 24 25 26 27 28 29 30 31 32 33 34 35 36 37 38 39 40 41 42 43 44 45 46 47 48 49 50
000
NZUS99 KSGF 201559
HRRSGF

HOURLY WEATHER
NATIONAL WEATHER SERVICE SPRINGFIELD MO
1000 AM CST THU NOV 20 2014

......SGF CWA......

CITY           SKY/WX    TMP DP  RH WIND       PRES   REMARKS
SPRINGFIELD    SUNNY     37  21  52 VRB5      30.24R WCI  33
JOPLIN         SUNNY     39  20  46 E10       30.23S WCI  32
WEST PLAINS    SUNNY     39  19  44 CALM      30.24R
ROLLA          SUNNY     30  18  60 W5        30.23R WCI  25
OSAGE BEACH    SUNNY     34  19  55 SW5       30.26R WCI  30
BRANSON        MOSUNNY   41  16  36 E9        30.24

......SURROUNDING SGF CWA......

CITY           SKY/WX    TMP DP  RH WIND       PRES   REMARKS
CHANUTE        SUNNY     36  22  56 E8        30.23R WCI  30
PARSONS        SUNNY     39  22  50 VRB6      30.23R WCI  35
COFFEYVILLE    SUNNY     40  25  55 E9        30.21S WCI  34
EMPORIA        SUNNY     33  19  56 SE6       30.23R WCI  28
SILOAM SPRINGS   N/A     45  25  45 E8        30.19S
HARRISON AR    SUNNY     38  22  52 SE7       30.23R WCI  33
NEAR YELLVILLE SUNNY     37  23  56 SE3       30.27R

......KANSAS AND MISSOURI......

CITY           SKY/WX    TMP DP  RH WIND       PRES   REMARKS
KANSAS CTY INT MOSUNNY   29  17  61 NE6       30.26R WCI  23
DOWNTOWN KC    SUNNY     31  18  58 CALM      30.27R
COLUMBIA       SUNNY     30  18  60 W9        30.26R WCI  22
SEDALIA          N/A     31  18  58 W5        30.27R WCI  26
ST JOSEPH      SUNNY     26  18  71 CALM      30.27S
ST LOUIS       MOSUNNY   32  18  56 NW8       30.27S WCI  25
SPIRIT OF STL  SUNNY     30  17  58 SW8       30.27S WCI  22
WICHITA        MOSUNNY   37  20  50 SE7       30.18S WCI  32
TOPEKA         SUNNY     31  19  61 E6        30.27R WCI  25
OLATHE         SUNNY     32  17  54 NE6       30.25R WCI  26

......TENNESSEE......

CITY           SKY/WX    TMP DP  RH WIND       PRES   REMARKS
MEMPHIS        MOSUNNY   46  24  42 E3        30.30R
NASHVILLE      SUNNY     41  22  46 W6        30.28R

......ARKANSAS.......

CITY           SKY/WX    TMP DP  RH WIND       PRES   REMARKS
FAYETTEVILLE   SUNNY     41  30  65 SW3       30.19F
FT SMITH       SUNNY     46  29  51 E15       30.21F
LITTLE ROCK    PTSUNNY   45  26  47 E7        30.30R

......OKLAHOMA.......

CITY           SKY/WX    TMP DP  RH WIND       PRES   REMARKS
TULSA          PTSUNNY   36  25  64 CALM      30.18S
PONCA CITY     PTSUNNY   45  24  43 SE8       30.16S
MCALESTER      MOSUNNY   50  35  56 VRB7      30.15S
OKLAHOMA CITY  MOSUNNY   49  30  48 E12       30.10S

......IOWA............

CITY           SKY/WX    TMP DP  RH WIND       PRES   REMARKS
DES MOINES     MOSUNNY   24  12  60 NW12      30.22R WCI  13
QUAD CITIES    SUNNY     25  13  60 W14       30.17R WCI  13

......ILLINOIS........

CITY           SKY/WX    TMP DP  RH WIND       PRES   REMARKS
QUINCY         PTSUNNY   27  13  55 W13       30.23R WCI  16
CHICAGO        MOSUNNY   24   9  52 W17G23    30.06R WCI  11




USA.gov is the U.S. government's official web portal to all federal, state and local government web resources and services.